Regional Weather Roundup
Issued by NWS Portland, ME

Home | Current Version | Previous Version | Text Only | Print | Product List | Glossary On
Versions: 1 2 3 4 5 6 7 8 9 10 11 12 13 14 15 16 17 18 19 20 21 22 23 24 25 26 27 28 29 30 31 32 33 34 35 36 37 38 39 40 41 42 43 44 45 46 47 48 49 50
000
ASUS41 KGYX 031110
RWRGYX
WEATHER ROUNDUP FOR MAINE AND NEW HAMPSHIRE
NATIONAL WEATHER SERVICE GRAY ME
700 AM EDT FRI JUL 03 2015

MEZ002-005-006-010-012-015-018-020-021-024-026-027-029-031200-
MAINE

CITY           SKY/WX    TMP DP  RH WIND       PRES   REMARKS
PORTLAND       SUNNY     59  52  77 CALM      29.92R
SANFORD        SUNNY     61  48  63 W3        29.93S
BAR HARBOR     SUNNY     57  57 100 CALM      29.88F
WISCASSET      SUNNY     57  53  86 CALM      29.92S
ROCKLAND       SUNNY     59  52  77 NW5       29.88S
FRYEBURG       SUNNY     53  50  89 CALM      29.94S
LEWISTONAUBURN SUNNY     54  46  76 CALM      29.92R
AUGUSTA        SUNNY     59  49  69 W5        29.91S
WATERVILLE     SUNNY     55  48  76 CALM      29.88S
BANGOR         MOSUNNY   58  52  80 CALM      29.89S
GREENVILLE       N/A     55  47  74 CALM      29.87S
MILLINOCKET    SUNNY     57  50  77 CALM      29.87F
HOULTON        SUNNY     57  48  72 S5        29.83S
PRESQUE ISLE   SUNNY     55  45  67 S3        29.80S
FRENCHVILLE    CLOUDY    55  46  71 SW12G20   29.75S
CARIBOU        SUNNY     55  46  71 SW13G21   29.79R
$$

NHZ002-005-008-009-011-012-014-031200-
NEW HAMPSHIRE

CITY           SKY/WX    TMP DP  RH WIND       PRES   REMARKS
PORTSMOUTH     MOSUNNY   61  53  74 NW5       29.92R
ROCHESTER      SUNNY     59  51  75 NW6       29.92R
NASHUA         SUNNY     58  52  80 NW6       29.95R
MANCHESTER     MOSUNNY   60  50  69 NW5       29.93R
CONCORD        SUNNY     57  51  80 CALM      29.95R
LACONIA        SUNNY     55  48  76 SW6       29.95R
PLYMOUTH       FAIR      48  48 100 CALM      29.97R
BERLIN         MOSUNNY   44  42  93 CALM      29.95S
WHITEFIELD     SUNNY     47  44  90 CALM      29.97R
JAFFREY        SUNNY     52  49  89 CALM      29.97R
KEENE          CLOUDY    52  46  82 CALM      29.98R VSB 1/2
LEBANON        FOG       50  49  96 CALM      29.98R VSB 1
MT WASHINGTON  MOSUNNY   37  32  81 NW37G44     N/A
$$

VTZ005-007-008-031200-
VERMONT

CITY           SKY/WX    TMP DP  RH WIND       PRES   REMARKS
ST JOHNSBURY     N/A     47  45  93 MISG      29.96R
MONTPELIER     PTSUNNY   48  47  96 CALM      30.01R FOG
BURLINGTON     MOSUNNY   54  48  80 CALM      29.96R
$$

MAZ007-012-024-CTZ003-RIZ002-NYZ038-NYZ072-031200-
SOUTHERN NEW ENGLAND AND NY

CITY           SKY/WX    TMP DP  RH WIND       PRES   REMARKS
BOSTON         MOSUNNY   65  49  56 N9        29.93R
WORCESTER      SUNNY     63  42  46 N9        29.96R
NANTUCKET      MOSUNNY   65  62  90 W7        29.88R
PROVIDENCE     MOSUNNY   65  54  67 N7        29.93R
HARTFORD       SUNNY     60  51  72 CALM      29.95R
ALBANY         MOSUNNY   57  49  74 CALM      30.00R
NEW YORK CITY  MOSUNNY   68  52  56 NE7       29.95R
$$

ANZ081-ANZ082-ANZ150-NHZ014-MEZ023>029-031200-
COASTAL MARINE OBSERVATIONS

STATION/POSITION TIME  TEMP    WIND        PRES    WAVE
                       AIR SEA DIR/SP/G            HT/PER
                 (UTC) (F)     (DEG/KT/KT) (MB)    (FT/S)
MOUNT DESERT ROC 1100   58     320/ 10/ 10 1012.1R
MATINICUS ROCK   1100   59     330/  7/  8 1012.0R
ISLE OF SHOALS   1100   59     330/  9/  9 1012.7R
JEFFREYS LEDGE   1003      58                N/A     3/ 8
CASHES LEDGE BUO 1050   58 55              1012.2R   4/ 9
GEORGES BANK BUO 1050   59 59  360/ 14/ 17 1009.9R   6/ 9
$$

.............KEY..............
   WCI - WIND CHILL
   TC  - TEMPERATURE IN CELSIUS
   VSB - VISIBILITY IN MILES
   HX  - HEAT INDEX
   FAIR- INDICATES FEW OR NO CLOUDS BELOW 12,000 FT, WITH NO
         SIGNIFICANT WEATHER AND/OR OBSTRUCTIONS TO VISIBILITY.




USA.gov is the U.S. government's official web portal to all federal, state and local government web resources and services.